Keene, NH

1:13 AM EDT on April 29, 2017 (GMT -0400)
Dillant-Hopkins

Weather History for KEEN - March, 2013

Change the Weather History Date:

Saturday, March 23, 2013

  Actual Average Record
Temperature  
Mean Temperature 29 °F -  
Max Temperature 39 °F 46 °F 78 °F (1938)
Min Temperature 19 °F 24 °F -3 °F (1939)
Degree Days  
Heating Degree Days 36    
Moisture  
Dew Point 16 °F    
Average Humidity 54    
Maximum Humidity 86    
Minimum Humidity 33    
Precipitation  
Precipitation 0.00 in - - ()
Sea Level Pressure  
Sea Level Pressure 29.73 in    
Wind  
Wind Speed 7 mph (WNW)    
Max Wind Speed 21 mph    
Max Gust Speed 33 mph    
Visibility 10 miles    
Events      
Averages and records for this station are not official NWS values.
T = Trace of Precipitation, MM = Missing Value Source: NWS Daily Summary

Daily Weather History Graph

Daily Weather History Graph

Search for Another Location

Airport or City:

Trip Planner

Search our weather history database for the weather conditions in past years. The results will help you decide how hot, cold, wet, or windy it might be!

Date:

Astronomy

Mar. 23, 2013 Rise Set
Actual Time 6:46 AM EDT 7:05 PM EDT
Civil Twilight 6:18 AM EDT 7:33 PM EDT
Nautical Twilight 5:45 AM EDT 8:06 PM EDT
Astronomical Twilight 5:11 AM EDT 8:41 PM EDT
Moon 3:24 PM EDT (3/23) 4:26 AM EDT (3/23)
Length of Visible Light 13h 15m
Length of Day
12h 18m
Waxing Gibbous, 85% of the Moon is Illuminated
Mar 23
Waxing Gibbous
Mar 27
Full
Apr 3
Last Quarter
Apr 10
New
Apr 18
First Quarter

Hourly Weather History & Observations

Time (EDT) Temp. Windchill Dew Point Humidity Pressure Visibility Wind Dir Wind Speed Gust Speed Precip Events Conditions
12:15 AM 28.4 °F 23.3 °F 15.8 °F 59% 29.75 in 10.0 mi West 4.6 mph - N/A   Clear
12:35 AM 28.4 °F 24.6 °F 15.8 °F 59% 29.75 in 10.0 mi West 3.5 mph - N/A   Clear
1:15 AM 24.8 °F 19.1 °F 15.8 °F 69% 29.75 in 10.0 mi SW 4.6 mph - N/A   Scattered Clouds
1:35 AM 26.6 °F 21.2 °F 17.6 °F 69% 29.75 in 10.0 mi South 4.6 mph - N/A   Clear
1:55 AM 26.6 °F 22.6 °F 17.6 °F 69% 29.75 in 10.0 mi South 3.5 mph - N/A   Mostly Cloudy
2:15 AM 24.8 °F - 15.8 °F 69% 29.74 in 10.0 mi Calm Calm - N/A   Overcast
2:35 AM 24.8 °F - 15.8 °F 69% 29.73 in 10.0 mi Calm Calm - N/A   Overcast
2:55 AM 24.8 °F - 17.6 °F 74% 29.73 in 10.0 mi Calm Calm - N/A   Overcast
3:15 AM 24.8 °F 20.5 °F 15.8 °F 69% 29.73 in 10.0 mi SSW 3.5 mph - N/A   Overcast
3:55 AM 23.0 °F 17.0 °F 14.0 °F 68% 29.71 in 10.0 mi South 4.6 mph - N/A   Scattered Clouds
4:15 AM 21.2 °F - 15.8 °F 80% 29.71 in 10.0 mi Calm Calm - N/A   Clear
4:35 AM 24.8 °F - 17.6 °F 74% 29.71 in 10.0 mi Calm Calm - N/A   Partly Cloudy
4:55 AM 21.2 °F 14.9 °F 14.0 °F 74% 29.71 in 10.0 mi SSW 4.6 mph - N/A   Mostly Cloudy
5:15 AM 24.8 °F - 17.6 °F 74% 29.71 in 10.0 mi Calm Calm - N/A   Mostly Cloudy
5:35 AM 21.2 °F 14.9 °F 15.8 °F 80% 29.71 in 10.0 mi SW 4.6 mph - N/A   Mostly Cloudy
6:15 AM 21.2 °F 16.4 °F 15.8 °F 80% 29.71 in 10.0 mi SW 3.5 mph - N/A   Clear
6:35 AM 19.4 °F - 15.8 °F 86% 29.70 in 10.0 mi Calm Calm - N/A   Clear
6:55 AM 19.4 °F - 15.8 °F 86% 29.70 in 10.0 mi Calm Calm - N/A   Clear
7:15 AM 21.2 °F - 17.6 °F 86% 29.71 in 10.0 mi Calm Calm - N/A   Clear
7:35 AM 21.2 °F 16.4 °F 15.8 °F 80% 29.71 in 10.0 mi SSW 3.5 mph - N/A   Clear
7:55 AM 21.2 °F 14.9 °F 15.8 °F 80% 29.71 in 10.0 mi SSW 4.6 mph - N/A   Clear
8:15 AM 26.6 °F 20.0 °F 19.4 °F 74% 29.71 in 10.0 mi WSW 5.8 mph - N/A   Mostly Cloudy
9:15 AM 33.8 °F 23.9 °F 19.4 °F 56% 29.71 in 10.0 mi NW 15.0 mph 23.0 mph N/A   Scattered Clouds
9:35 AM 33.8 °F 25.8 °F 17.6 °F 52% 29.71 in 10.0 mi WNW 10.4 mph 21.9 mph N/A   Mostly Cloudy
9:55 AM 33.8 °F 24.8 °F 17.6 °F 52% 29.71 in 10.0 mi WNW 12.7 mph 19.6 mph N/A   Overcast
10:15 AM 33.8 °F 24.3 °F 17.6 °F 52% 29.71 in 10.0 mi WNW 13.8 mph 18.4 mph N/A   Mostly Cloudy
10:35 AM 33.8 °F 24.8 °F 17.6 °F 52% 29.70 in 10.0 mi WNW 12.7 mph 21.9 mph N/A   Mostly Cloudy
10:55 AM 33.8 °F 24.8 °F 15.8 °F 48% 29.70 in 10.0 mi WNW 12.7 mph 20.7 mph N/A   Overcast
11:15 AM 33.8 °F 24.8 °F 15.8 °F 48% 29.70 in 10.0 mi West 12.7 mph 19.6 mph N/A   Overcast
12:15 PM 35.6 °F 27.5 °F 14.0 °F 41% 29.68 in 10.0 mi WNW 11.5 mph 23.0 mph N/A   Overcast
12:35 PM 37.4 °F 27.5 °F 15.8 °F 41% 29.69 in 10.0 mi NW 18.4 mph 23.0 mph N/A   Overcast
12:55 PM 37.4 °F 28.5 °F 15.8 °F 41% 29.68 in 10.0 mi NW 15.0 mph 26.5 mph N/A   Overcast
1:15 PM 37.4 °F 28.2 °F 15.8 °F 41% 29.68 in 10.0 mi NW 16.1 mph 26.5 mph N/A   Overcast
1:35 PM 37.4 °F 28.2 °F 15.8 °F 41% 29.67 in 10.0 mi NNW 16.1 mph 24.2 mph N/A   Mostly Cloudy
2:15 PM 39.2 °F 30.2 °F 14.0 °F 36% 29.67 in 10.0 mi WNW 17.3 mph 26.5 mph N/A   Overcast
2:35 PM 39.2 °F 31.2 °F 14.0 °F 36% 29.67 in 10.0 mi WNW 13.8 mph 27.6 mph N/A   Overcast
2:55 PM 39.2 °F 29.3 °F 12.2 °F 33% 29.68 in 10.0 mi NW 20.7 mph 33.4 mph N/A   Mostly Cloudy
3:35 PM 39.2 °F 29.3 °F 14.0 °F 36% 29.68 in 10.0 mi NNW 20.7 mph 26.5 mph N/A   Overcast
3:55 PM 39.2 °F 30.5 °F 12.2 °F 33% 29.69 in 10.0 mi NW 16.1 mph 26.5 mph N/A   Overcast
4:15 PM 39.2 °F 29.6 °F 12.2 °F 33% 29.68 in 10.0 mi WNW 19.6 mph 25.3 mph N/A   Mostly Cloudy
4:35 PM 39.2 °F 29.6 °F 12.2 °F 33% 29.68 in 10.0 mi WNW 19.6 mph 29.9 mph N/A   Scattered Clouds
4:55 PM 39.2 °F 30.8 °F 14.0 °F 36% 29.70 in 10.0 mi NW 15.0 mph 26.5 mph N/A   Clear
5:15 PM 39.2 °F 30.5 °F 14.0 °F 36% 29.70 in 10.0 mi WNW 16.1 mph 25.3 mph N/A   Clear
5:35 PM 39.2 °F 31.2 °F 14.0 °F 36% 29.71 in 10.0 mi WNW 13.8 mph 23.0 mph N/A   Mostly Cloudy
5:55 PM 39.2 °F 32.0 °F 14.0 °F 36% 29.72 in 10.0 mi WNW 11.5 mph 19.6 mph N/A   Overcast
6:15 PM 37.4 °F 32.1 °F 15.8 °F 41% 29.73 in 10.0 mi NW 6.9 mph 18.4 mph N/A   Overcast
6:55 PM 37.4 °F 30.3 °F 15.8 °F 41% 29.74 in 10.0 mi NW 10.4 mph 18.4 mph N/A   Overcast
7:15 PM 37.4 °F 32.8 °F 15.8 °F 41% 29.75 in 10.0 mi NW 5.8 mph - N/A   Mostly Cloudy
7:35 PM 35.6 °F 27.5 °F 14.0 °F 41% 29.76 in 10.0 mi West 11.5 mph 18.4 mph N/A   Mostly Cloudy
7:55 PM 35.6 °F - 15.8 °F 44% 29.77 in 10.0 mi Calm Calm - N/A   Overcast
8:15 PM 35.6 °F 30.7 °F 15.8 °F 44% 29.77 in 10.0 mi West 5.8 mph - N/A   Overcast
8:35 PM 35.6 °F 29.9 °F 15.8 °F 44% 29.78 in 10.0 mi NW 6.9 mph - N/A   Overcast
8:55 PM 35.6 °F 30.7 °F 15.8 °F 44% 29.79 in 10.0 mi NW 5.8 mph - N/A   Overcast
9:15 PM 35.6 °F 28.0 °F 15.8 °F 44% 29.79 in 10.0 mi WNW 10.4 mph - N/A   Mostly Cloudy
9:35 PM 35.6 °F 30.7 °F 15.8 °F 44% 29.79 in 10.0 mi NW 5.8 mph - N/A   Mostly Cloudy
9:55 PM 35.6 °F 27.1 °F 15.8 °F 44% 29.79 in 10.0 mi NW 12.7 mph 17.3 mph N/A   Mostly Cloudy
10:15 PM 35.6 °F 32.8 °F 17.6 °F 48% 29.80 in 10.0 mi NW 3.5 mph - N/A   Partly Cloudy
10:35 PM 35.6 °F 28.6 °F 15.8 °F 44% 29.80 in 10.0 mi NW 9.2 mph 16.1 mph N/A   Clear
10:55 PM 33.8 °F 28.6 °F 17.6 °F 52% 29.80 in 10.0 mi NW 5.8 mph - N/A   Mostly Cloudy
11:15 PM 33.8 °F 27.7 °F 15.8 °F 48% 29.80 in 10.0 mi West 6.9 mph 16.1 mph N/A   Mostly Cloudy
11:35 PM 33.8 °F 30.8 °F 17.6 °F 52% 29.80 in 10.0 mi West 3.5 mph - N/A   Overcast
11:55 PM 33.8 °F 27.0 °F 17.6 °F 52% 29.80 in 10.0 mi WNW 8.1 mph - N/A   Overcast